Time,TemperatureF,DewpointF,PressureIn,WindDirection,WindDirectionDegrees,WindSpeedMPH,WindSpeedGustMPH,Humidity,HourlyPrecipIn,Conditions,Clouds,dailyrainin,SoftwareType,DateUTC
2013-06-25 00:04:00,69.1,63.0,30.21,WSW,247,0.0,0.0,81,0.00,,,0.00,WUHU21623XXSP,2013-06-25 04:04:00,
2013-06-25 00:09:00,68.7,62.8,30.22,WSW,247,0.0,0.0,81,0.00,,,0.00,WUHU21623XXSP,2013-06-25 04:09:00,
2013-06-25 00:14:00,68.7,62.7,30.22,WSW,247,0.0,0.0,81,0.00,,,0.00,WUHU21623XXSP,2013-06-25 04:14:00,
2013-06-25 00:19:00,68.7,62.7,30.22,WSW,247,0.0,0.0,81,0.00,,,0.00,WUHU21623XXSP,2013-06-25 04:19:00,
2013-06-25 00:24:00,68.5,62.5,30.22,WSW,247,0.0,0.0,81,0.00,,,0.00,WUHU21623XXSP,2013-06-25 04:24:00,
2013-06-25 00:29:00,68.4,62.3,30.22,WSW,247,0.0,0.0,81,0.00,,,0.00,WUHU21623XXSP,2013-06-25 04:29:00,
2013-06-25 00:34:00,68.4,62.7,30.22,WSW,247,0.0,0.0,82,0.00,,,0.00,WUHU21623XXSP,2013-06-25 04:34:00,
2013-06-25 00:39:00,68.2,62.5,30.21,WSW,247,0.0,0.0,82,0.00,,,0.00,WUHU21623XXSP,2013-06-25 04:39:00,
2013-06-25 00:44:00,68.2,62.5,30.21,WSW,247,0.0,0.0,82,0.00,,,0.00,WUHU21623XXSP,2013-06-25 04:44:00,
2013-06-25 00:49:00,68.2,62.5,30.22,WSW,247,0.0,0.0,82,0.00,,,0.00,WUHU21623XXSP,2013-06-25 04:49:00,
2013-06-25 00:54:00,67.8,62.2,30.21,WSW,247,0.0,0.0,82,0.00,,,0.00,WUHU21623XXSP,2013-06-25 04:54:00,
2013-06-25 00:59:00,67.8,62.2,30.20,WSW,247,0.0,0.0,82,0.00,,,0.00,WUHU21623XXSP,2013-06-25 04:59:00,
2013-06-25 01:04:00,67.8,62.5,30.20,WSW,247,0.0,0.0,83,0.00,,,0.00,WUHU21623XXSP,2013-06-25 05:04:00,
2013-06-25 01:09:00,67.8,62.5,30.20,WSW,247,0.0,0.0,83,0.00,,,0.00,WUHU21623XXSP,2013-06-25 05:09:00,
2013-06-25 01:14:00,67.8,62.5,30.20,WSW,247,0.0,0.0,83,0.00,,,0.00,WUHU21623XXSP,2013-06-25 05:14:00,
2013-06-25 01:19:00,67.6,62.3,30.20,WSW,247,0.0,0.0,83,0.00,,,0.00,WUHU21623XXSP,2013-06-25 05:19:00,
2013-06-25 01:24:00,67.6,62.3,30.20,WSW,247,0.0,0.0,83,0.00,,,0.00,WUHU21623XXSP,2013-06-25 05:24:00,
2013-06-25 01:29:00,67.6,62.3,30.20,WSW,247,0.0,0.0,83,0.00,,,0.00,WUHU21623XXSP,2013-06-25 05:29:00,
2013-06-25 01:35:00,67.3,62.0,30.20,WSW,247,0.0,0.0,83,0.00,,,0.00,WUHU21623XXSP,2013-06-25 05:35:00,
2013-06-25 01:40:00,67.3,62.0,30.20,WSW,247,0.0,0.0,83,0.00,,,0.00,WUHU21623XXSP,2013-06-25 05:40:00,
2013-06-25 01:45:00,67.3,62.0,30.20,WSW,247,0.0,0.0,84,0.00,,,0.00,WUHU21623XXSP,2013-06-25 05:45:00,
2013-06-25 01:50:00,67.3,62.6,30.20,WSW,247,0.0,0.0,85,0.00,,,0.00,WUHU21623XXSP,2013-06-25 05:50:00,
2013-06-25 01:55:00,67.1,62.1,30.20,WSW,247,0.0,0.0,84,0.00,,,0.00,WUHU21623XXSP,2013-06-25 05:55:00,
2013-06-25 02:00:00,67.1,62.1,30.20,WSW,247,0.0,0.0,84,0.00,,,0.00,WUHU21623XXSP,2013-06-25 06:00:00,
2013-06-25 02:05:00,67.1,62.1,30.20,WSW,247,0.0,0.0,84,0.00,,,0.00,WUHU21623XXSP,2013-06-25 06:05:00,
2013-06-25 02:15:00,66.7,61.7,30.20,WSW,247,0.0,0.0,84,0.00,,,0.00,WUHU21623XXSP,2013-06-25 06:15:00,
2013-06-25 02:20:00,66.7,61.7,30.19,WSW,247,0.0,0.0,84,0.00,,,0.00,WUHU21623XXSP,2013-06-25 06:20:00,
2013-06-25 02:25:00,66.7,61.7,30.19,WSW,247,0.0,0.0,84,0.00,,,0.00,WUHU21623XXSP,2013-06-25 06:25:00,
2013-06-25 02:30:00,66.7,62.1,30.19,WSW,247,0.0,0.0,85,0.00,,,0.00,WUHU21623XXSP,2013-06-25 06:30:00,
2013-06-25 02:35:00,66.7,62.1,30.19,WSW,247,0.0,0.0,85,0.00,,,0.00,WUHU21623XXSP,2013-06-25 06:35:00,
2013-06-25 02:40:00,66.6,61.9,30.18,WSW,247,0.0,0.0,85,0.00,,,0.00,WUHU21623XXSP,2013-06-25 06:40:00,
2013-06-25 02:45:00,66.6,61.9,30.19,WSW,247,0.0,0.0,85,0.00,,,0.00,WUHU21623XXSP,2013-06-25 06:45:00,
2013-06-25 02:50:00,66.6,61.9,30.18,WSW,247,0.0,0.0,85,0.00,,,0.00,WUHU21623XXSP,2013-06-25 06:50:00,
2013-06-25 02:55:00,66.4,61.7,30.18,WSW,247,0.0,0.0,85,0.00,,,0.00,WUHU21623XXSP,2013-06-25 06:55:00,
2013-06-25 03:00:00,66.4,61.7,30.19,WSW,247,0.0,0.0,85,0.00,,,0.00,WUHU21623XXSP,2013-06-25 07:00:00,
2013-06-25 03:05:00,66.4,61.7,30.19,WSW,247,0.0,0.0,85,0.00,,,0.00,WUHU21623XXSP,2013-06-25 07:05:00,
2013-06-25 03:15:00,66.2,61.5,30.18,WSW,247,0.0,0.0,85,0.00,,,0.00,WUHU21623XXSP,2013-06-25 07:15:00,
2013-06-25 03:20:00,66.2,61.8,30.18,WSW,247,0.0,0.0,86,0.00,,,0.00,WUHU21623XXSP,2013-06-25 07:20:00,
2013-06-25 03:25:00,66.2,61.8,30.18,WSW,247,0.0,0.0,86,0.00,,,0.00,WUHU21623XXSP,2013-06-25 07:25:00,
2013-06-25 03:30:00,66.2,61.8,30.18,WSW,247,0.0,0.0,86,0.00,,,0.00,WUHU21623XXSP,2013-06-25 07:30:00,
2013-06-25 03:35:00,66.2,61.8,30.18,WSW,247,0.0,0.0,86,0.00,,,0.00,WUHU21623XXSP,2013-06-25 07:35:00,
2013-06-25 03:40:00,66.2,61.8,30.18,WSW,247,0.0,0.0,86,0.00,,,0.00,WUHU21623XXSP,2013-06-25 07:40:00,
2013-06-25 03:45:00,66.2,61.8,30.18,WSW,247,0.0,0.0,86,0.00,,,0.00,WUHU21623XXSP,2013-06-25 07:45:00,
2013-06-25 03:50:00,66.0,61.7,30.18,WSW,247,0.0,0.0,86,0.00,,,0.00,WUHU21623XXSP,2013-06-25 07:50:00,
2013-06-25 03:55:00,66.0,61.7,30.18,WSW,247,0.0,0.0,86,0.00,,,0.00,WUHU21623XXSP,2013-06-25 07:55:00,
2013-06-25 04:00:00,66.0,61.7,30.18,WSW,247,0.0,0.0,86,0.00,,,0.00,WUHU21623XXSP,2013-06-25 08:00:00,
2013-06-25 04:05:00,66.0,61.7,30.18,WSW,247,0.0,0.0,86,0.00,,,0.00,WUHU21623XXSP,2013-06-25 08:05:00,
2013-06-25 04:10:00,66.0,61.7,30.18,WSW,247,0.0,0.0,86,0.00,,,0.00,WUHU21623XXSP,2013-06-25 08:10:00,
2013-06-25 04:15:00,66.0,61.7,30.18,WSW,247,0.0,0.0,86,0.00,,,0.00,WUHU21623XXSP,2013-06-25 08:15:00,
2013-06-25 04:20:00,66.0,61.7,30.18,WSW,247,0.0,0.0,86,0.00,,,0.00,WUHU21623XXSP,2013-06-25 08:20:00,
2013-06-25 04:25:00,66.0,62.0,30.18,WSW,247,0.0,0.0,87,0.00,,,0.00,WUHU21623XXSP,2013-06-25 08:25:00,
2013-06-25 04:30:00,66.0,62.0,30.18,WSW,247,0.0,0.0,87,0.00,,,0.00,WUHU21623XXSP,2013-06-25 08:30:00,
2013-06-25 04:35:00,66.0,61.7,30.18,WSW,247,0.0,0.0,87,0.00,,,0.00,WUHU21623XXSP,2013-06-25 08:35:00,
2013-06-25 04:40:00,66.0,62.0,30.18,WSW,247,0.0,0.0,87,0.00,,,0.00,WUHU21623XXSP,2013-06-25 08:40:00,
2013-06-25 04:45:00,65.8,61.8,30.18,WSW,247,0.0,0.0,87,0.00,,,0.00,WUHU21623XXSP,2013-06-25 08:45:00,
2013-06-25 04:50:00,65.8,61.8,30.18,WSW,247,0.0,0.0,87,0.00,,,0.00,WUHU21623XXSP,2013-06-25 08:50:00,
2013-06-25 04:55:00,65.8,61.8,30.17,WSW,247,0.0,0.0,87,0.00,,,0.00,WUHU21623XXSP,2013-06-25 08:55:00,
2013-06-25 05:00:00,65.7,61.7,30.17,WSW,247,0.0,0.0,87,0.00,,,0.00,WUHU21623XXSP,2013-06-25 09:00:00,
2013-06-25 05:05:00,65.7,61.7,30.18,WSW,247,0.0,0.0,87,0.00,,,0.00,WUHU21623XXSP,2013-06-25 09:05:00,
2013-06-25 05:10:00,65.7,61.7,30.17,WSW,247,0.0,0.0,87,0.00,,,0.00,WUHU21623XXSP,2013-06-25 09:10:00,
2013-06-25 05:15:00,65.5,61.5,30.17,WSW,247,0.0,0.0,87,0.00,,,0.00,WUHU21623XXSP,2013-06-25 09:15:00,
2013-06-25 05:20:00,65.5,61.5,30.17,WSW,247,0.0,0.0,87,0.00,,,0.00,WUHU21623XXSP,2013-06-25 09:20:00,
2013-06-25 05:25:00,65.5,61.5,30.17,WSW,247,0.0,0.0,87,0.00,,,0.00,WUHU21623XXSP,2013-06-25 09:25:00,
2013-06-25 05:30:00,65.5,61.5,30.17,WSW,247,0.0,0.0,87,0.00,,,0.00,WUHU21623XXSP,2013-06-25 09:30:00,
2013-06-25 05:35:00,65.5,61.5,30.17,WSW,247,0.0,0.0,87,0.00,,,0.00,WUHU21623XXSP,2013-06-25 09:35:00,
2013-06-25 05:40:00,65.3,61.3,30.17,WSW,247,0.0,0.0,87,0.00,,,0.00,WUHU21623XXSP,2013-06-25 09:40:00,
2013-06-25 05:45:00,65.5,61.5,30.18,WSW,247,0.0,0.0,87,0.00,,,0.00,WUHU21623XXSP,2013-06-25 09:45:00,
2013-06-25 05:50:00,65.5,61.3,30.18,WSW,247,0.0,0.0,87,0.00,,,0.00,WUHU21623XXSP,2013-06-25 09:50:00,
2013-06-25 05:55:00,65.5,61.5,30.18,WSW,247,0.0,0.0,87,0.00,,,0.00,WUHU21623XXSP,2013-06-25 09:55:00,
2013-06-25 06:00:00,65.5,61.5,30.19,WSW,247,0.0,0.0,87,0.00,,,0.00,WUHU21623XXSP,2013-06-25 10:00:00,
2013-06-25 06:06:00,65.5,61.5,30.19,WSW,247,0.0,0.0,87,0.00,,,0.00,WUHU21623XXSP,2013-06-25 10:06:00,
2013-06-25 06:11:00,65.5,61.5,30.20,WSW,247,0.0,0.0,87,0.00,,,0.00,WUHU21623XXSP,2013-06-25 10:11:00,
2013-06-25 06:16:00,65.5,61.5,30.19,WSW,247,0.0,0.0,87,0.00,,,0.00,WUHU21623XXSP,2013-06-25 10:16:00,
2013-06-25 06:21:00,65.5,61.5,30.19,WSW,247,0.0,0.0,87,0.00,,,0.00,WUHU21623XXSP,2013-06-25 10:21:00,
2013-06-25 06:26:00,65.5,61.5,30.19,WSW,247,0.0,0.0,87,0.00,,,0.00,WUHU21623XXSP,2013-06-25 10:26:00,
2013-06-25 06:31:00,65.3,61.3,30.20,WSW,247,0.0,0.0,87,0.00,,,0.00,WUHU21623XXSP,2013-06-25 10:31:00,
2013-06-25 06:36:00,65.3,61.3,30.20,WSW,247,0.0,0.0,87,0.00,,,0.00,WUHU21623XXSP,2013-06-25 10:36:00,
2013-06-25 06:41:00,65.3,61.3,30.20,WSW,247,0.0,0.0,87,0.00,,,0.00,WUHU21623XXSP,2013-06-25 10:41:00,
2013-06-25 06:46:00,65.3,61.3,30.20,WSW,247,0.0,0.0,87,0.00,,,0.00,WUHU21623XXSP,2013-06-25 10:46:00,
2013-06-25 06:51:00,65.3,61.3,30.20,WSW,247,0.0,0.0,87,0.00,,,0.00,WUHU21623XXSP,2013-06-25 10:51:00,
2013-06-25 06:56:00,65.5,61.5,30.20,WSW,247,0.0,0.0,87,0.00,,,0.00,WUHU21623XXSP,2013-06-25 10:56:00,
2013-06-25 07:01:00,65.5,61.5,30.20,WSW,247,0.0,0.0,87,0.00,,,0.00,WUHU21623XXSP,2013-06-25 11:01:00,
2013-06-25 07:06:00,65.7,61.7,30.20,WSW,247,0.0,0.0,87,0.00,,,0.00,WUHU21623XXSP,2013-06-25 11:06:00,
2013-06-25 07:11:00,65.8,62.2,30.20,WSW,247,0.0,0.0,88,0.00,,,0.00,WUHU21623XXSP,2013-06-25 11:11:00,
2013-06-25 07:16:00,66.0,62.3,30.21,WSW,247,0.0,0.0,88,0.00,,,0.00,WUHU21623XXSP,2013-06-25 11:16:00,
2013-06-25 07:21:00,66.0,62.3,30.21,WSW,247,0.0,0.0,88,0.00,,,0.00,WUHU21623XXSP,2013-06-25 11:21:00,
2013-06-25 07:26:00,66.0,62.3,30.20,WSW,247,0.0,0.0,88,0.00,,,0.00,WUHU21623XXSP,2013-06-25 11:26:00,
2013-06-25 07:31:00,66.4,62.7,30.21,WSW,247,0.0,0.0,88,0.00,,,0.00,WUHU21623XXSP,2013-06-25 11:31:00,
2013-06-25 07:36:00,66.4,62.7,30.21,WSW,247,0.0,0.0,88,0.00,,,0.00,WUHU21623XXSP,2013-06-25 11:36:00,
2013-06-25 07:41:00,66.6,62.9,30.20,WSW,247,0.0,0.0,88,0.00,,,0.00,WUHU21623XXSP,2013-06-25 11:41:00,
2013-06-25 07:46:00,66.6,62.9,30.21,WSW,247,0.0,0.0,88,0.00,,,0.00,WUHU21623XXSP,2013-06-25 11:46:00,
2013-06-25 07:51:00,66.6,62.9,30.21,WSW,247,0.0,0.0,88,0.00,,,0.00,WUHU21623XXSP,2013-06-25 11:51:00,
2013-06-25 07:56:00,66.7,63.0,30.21,WSW,247,0.0,0.0,88,0.00,,,0.00,WUHU21623XXSP,2013-06-25 11:56:00,
2013-06-25 08:01:00,66.7,63.0,30.21,WSW,247,0.0,0.0,88,0.00,,,0.00,WUHU21623XXSP,2013-06-25 12:01:00,
2013-06-25 08:06:00,66.7,63.0,30.21,WSW,247,0.0,0.0,88,0.00,,,0.00,WUHU21623XXSP,2013-06-25 12:06:00,
2013-06-25 08:11:00,66.7,63.0,30.21,WSW,247,0.0,0.0,88,0.00,,,0.00,WUHU21623XXSP,2013-06-25 12:11:00,
2013-06-25 08:16:00,66.9,63.2,30.21,WSW,247,0.0,0.0,88,0.00,,,0.00,WUHU21623XXSP,2013-06-25 12:16:00,
2013-06-25 08:21:00,67.1,63.4,30.21,WSW,247,0.0,0.0,88,0.00,,,0.00,WUHU21623XXSP,2013-06-25 12:21:00,
2013-06-25 08:26:00,67.3,63.6,30.21,WSW,247,0.0,0.0,88,0.00,,,0.00,WUHU21623XXSP,2013-06-25 12:26:00,
2013-06-25 08:31:00,67.6,63.9,30.21,WSW,247,0.0,0.0,88,0.00,,,0.00,WUHU21623XXSP,2013-06-25 12:31:00,
2013-06-25 08:36:00,67.6,63.9,30.22,WSW,247,0.0,0.0,88,0.00,,,0.00,WUHU21623XXSP,2013-06-25 12:36:00,
2013-06-25 08:41:00,67.8,64.1,30.22,WSW,247,0.0,0.0,88,0.00,,,0.00,WUHU21623XXSP,2013-06-25 12:41:00,
2013-06-25 08:47:00,67.8,64.1,30.22,WSW,247,0.0,0.0,88,0.00,,,0.00,WUHU21623XXSP,2013-06-25 12:47:00,
2013-06-25 08:52:00,68.2,64.5,30.21,WSW,247,0.0,0.0,88,0.00,,,0.00,WUHU21623XXSP,2013-06-25 12:52:00,
2013-06-25 08:57:00,68.4,64.6,30.21,WSW,247,0.0,0.0,88,0.00,,,0.00,WUHU21623XXSP,2013-06-25 12:57:00,
2013-06-25 09:02:00,68.5,64.5,30.22,WSW,247,0.0,0.0,87,0.00,,,0.00,WUHU21623XXSP,2013-06-25 13:02:00,
2013-06-25 09:07:00,68.9,64.8,30.22,WSW,247,0.0,0.0,87,0.00,,,0.00,WUHU21623XXSP,2013-06-25 13:07:00,
2013-06-25 09:12:00,69.1,65.0,30.22,WSW,247,0.0,0.0,87,0.00,,,0.00,WUHU21623XXSP,2013-06-25 13:12:00,
2013-06-25 09:17:00,69.4,65.4,30.22,WSW,247,0.0,0.0,87,0.00,,,0.00,WUHU21623XXSP,2013-06-25 13:17:00,
2013-06-25 09:22:00,70.0,65.9,30.22,WSW,247,0.0,0.0,87,0.00,,,0.00,WUHU21623XXSP,2013-06-25 13:22:00,
2013-06-25 09:27:00,70.2,66.1,30.22,WSW,247,0.0,0.0,87,0.00,,,0.00,WUHU21623XXSP,2013-06-25 13:27:00,
2013-06-25 09:32:00,70.5,66.4,30.21,WSW,247,0.0,0.0,87,0.00,,,0.00,WUHU21623XXSP,2013-06-25 13:32:00,
2013-06-25 09:37:00,70.7,66.6,30.22,WSW,247,0.0,0.0,87,0.00,,,0.00,WUHU21623XXSP,2013-06-25 13:37:00,
2013-06-25 09:42:00,70.9,66.8,30.22,South,180,0.0,0.0,87,0.00,,,0.00,WUHU21623XXSP,2013-06-25 13:42:00,
2013-06-25 09:47:00,71.4,67.0,30.22,South,180,0.0,0.0,86,0.00,,,0.00,WUHU21623XXSP,2013-06-25 13:47:00,
2013-06-25 09:52:00,72.3,67.7,30.22,South,180,0.0,0.0,85,0.00,,,0.00,WUHU21623XXSP,2013-06-25 13:52:00,
2013-06-25 09:57:00,73.2,67.9,30.22,South,180,0.0,0.0,85,0.00,,,0.00,WUHU21623XXSP,2013-06-25 13:57:00,
2013-06-25 10:02:00,74.3,68.8,30.22,South,180,0.0,0.0,83,0.00,,,0.00,WUHU21623XXSP,2013-06-25 14:02:00,
2013-06-25 10:07:00,74.8,69.0,30.22,WSW,247,0.0,0.0,82,0.00,,,0.00,WUHU21623XXSP,2013-06-25 14:07:00,
2013-06-25 10:12:00,75.0,68.9,30.22,WSW,247,0.0,0.0,81,0.00,,,0.00,WUHU21623XXSP,2013-06-25 14:12:00,
2013-06-25 10:17:00,75.7,68.9,30.22,WSW,247,0.0,0.0,80,0.00,,,0.00,WUHU21623XXSP,2013-06-25 14:17:00,
2013-06-25 10:22:00,75.9,69.4,30.22,SW,225,0.0,0.0,80,0.00,,,0.00,WUHU21623XXSP,2013-06-25 14:22:00,
2013-06-25 10:27:00,76.1,69.1,30.22,SW,225,0.0,0.0,79,0.00,,,0.00,WUHU21623XXSP,2013-06-25 14:27:00,
2013-06-25 10:32:00,76.6,69.1,30.22,SW,225,0.0,0.0,78,0.00,,,0.00,WUHU21623XXSP,2013-06-25 14:32:00,
2013-06-25 10:37:00,76.8,69.0,30.22,SW,225,0.0,0.0,77,0.00,,,0.00,WUHU21623XXSP,2013-06-25 14:37:00,
2013-06-25 10:42:00,77.4,69.5,30.22,SW,225,0.0,0.0,77,0.00,,,0.00,WUHU21623XXSP,2013-06-25 14:42:00,
2013-06-25 10:47:00,77.7,69.9,30.22,SW,225,0.0,0.0,77,0.00,,,0.00,WUHU21623XXSP,2013-06-25 14:47:00,
2013-06-25 10:52:00,78.1,69.9,30.22,SW,225,0.0,0.0,76,0.00,,,0.00,WUHU21623XXSP,2013-06-25 14:52:00,
2013-06-25 10:57:00,78.4,69.8,30.22,WSW,247,0.0,0.0,75,0.00,,,0.00,WUHU21623XXSP,2013-06-25 14:57:00,
2013-06-25 11:02:00,79.3,70.7,30.22,WSW,247,0.0,0.0,75,0.00,,,0.00,WUHU21623XXSP,2013-06-25 15:02:00,
2013-06-25 11:07:00,80.1,70.6,30.21,WSW,247,0.0,0.0,73,0.00,,,0.00,WUHU21623XXSP,2013-06-25 15:07:00,
2013-06-25 11:12:00,80.6,70.8,30.22,WSW,247,0.0,0.0,72,0.00,,,0.00,WUHU21623XXSP,2013-06-25 15:12:00,
2013-06-25 11:17:00,80.8,70.4,30.22,WSW,247,0.0,0.0,71,0.00,,,0.00,WUHU21623XXSP,2013-06-25 15:17:00,
2013-06-25 11:22:00,80.8,70.9,30.21,WSW,247,0.0,0.0,72,0.00,,,0.00,WUHU21623XXSP,2013-06-25 15:22:00,
2013-06-25 11:27:00,81.0,71.1,30.21,WSW,247,0.0,0.0,72,0.00,,,0.00,WUHU21623XXSP,2013-06-25 15:27:00,
2013-06-25 11:32:00,81.0,70.7,30.21,WSW,247,0.0,0.0,71,0.00,,,0.00,WUHU21623XXSP,2013-06-25 15:32:00,
2013-06-25 11:37:00,81.0,70.3,30.21,WSW,247,0.0,0.0,70,0.00,,,0.00,WUHU21623XXSP,2013-06-25 15:37:00,
2013-06-25 11:43:00,80.8,70.5,30.21,WSW,247,0.0,0.0,71,0.00,,,0.00,WUHU21623XXSP,2013-06-25 15:43:00,
2013-06-25 11:48:00,82.0,71.2,30.21,SW,225,0.0,0.0,70,0.00,,,0.00,WUHU21623XXSP,2013-06-25 15:48:00,
2013-06-25 11:53:00,83.1,72.2,30.21,SW,225,0.0,0.0,69,0.00,,,0.00,WUHU21623XXSP,2013-06-25 15:53:00,
2013-06-25 11:58:00,84.0,72.3,30.20,SW,225,0.0,0.0,68,0.00,,,0.00,WUHU21623XXSP,2013-06-25 15:58:00,
2013-06-25 12:03:00,85.1,72.5,30.20,SSW,202,0.0,0.0,66,0.00,,,0.00,WUHU21623XXSP,2013-06-25 16:03:00,
2013-06-25 12:08:00,85.8,72.8,30.20,SW,225,0.0,0.0,65,0.00,,,0.00,WUHU21623XXSP,2013-06-25 16:08:00,
2013-06-25 12:13:00,85.6,72.1,30.20,SW,225,0.0,0.0,64,0.00,,,0.00,WUHU21623XXSP,2013-06-25 16:13:00,
2013-06-25 12:18:00,85.1,71.7,30.20,SW,225,0.0,0.0,64,0.00,,,0.00,WUHU21623XXSP,2013-06-25 16:18:00,
2013-06-25 12:23:00,84.7,71.7,30.20,WSW,247,0.0,0.0,65,0.00,,,0.00,WUHU21623XXSP,2013-06-25 16:23:00,
2013-06-25 12:28:00,84.7,71.7,30.20,WSW,247,0.0,0.0,65,0.00,,,0.00,WUHU21623XXSP,2013-06-25 16:28:00,
2013-06-25 12:33:00,84.9,71.8,30.20,WSW,247,0.0,0.0,65,0.00,,,0.00,WUHU21623XXSP,2013-06-25 16:33:00,
2013-06-25 12:38:00,85.1,72.0,30.19,WSW,247,0.0,0.0,65,0.00,,,0.00,WUHU21623XXSP,2013-06-25 16:38:00,
2013-06-25 12:43:00,85.6,71.9,30.19,WSW,247,0.0,0.0,64,0.00,,,0.00,WUHU21623XXSP,2013-06-25 16:43:00,
2013-06-25 12:48:00,85.6,72.1,30.19,WSW,247,0.0,0.0,64,0.00,,,0.00,WUHU21623XXSP,2013-06-25 16:48:00,
2013-06-25 12:53:00,86.2,72.2,30.19,WSW,247,0.0,0.0,64,0.00,,,0.00,WUHU21623XXSP,2013-06-25 16:53:00,
2013-06-25 12:58:00,87.8,72.8,30.19,WSW,247,0.0,0.0,61,0.00,,,0.00,WUHU21623XXSP,2013-06-25 16:58:00,
2013-06-25 13:03:00,88.9,73.3,30.18,SSW,202,0.0,0.0,60,0.00,,,0.00,WUHU21623XXSP,2013-06-25 17:03:00,
2013-06-25 13:08:00,89.8,74.1,30.18,WSW,247,0.0,0.0,60,0.00,,,0.00,WUHU21623XXSP,2013-06-25 17:08:00,
2013-06-25 13:13:00,90.3,74.0,30.18,WSW,247,0.0,0.0,59,0.00,,,0.00,WUHU21623XXSP,2013-06-25 17:13:00,
2013-06-25 13:18:00,90.9,73.8,30.18,South,180,0.0,0.0,56,0.00,,,0.00,WUHU21623XXSP,2013-06-25 17:18:00,
2013-06-25 13:23:00,91.2,73.8,30.18,South,180,0.0,0.0,57,0.00,,,0.00,WUHU21623XXSP,2013-06-25 17:23:00,
2013-06-25 13:28:00,91.8,73.7,30.18,WSW,247,0.0,0.0,56,0.00,,,0.00,WUHU21623XXSP,2013-06-25 17:28:00,
2013-06-25 13:33:00,91.9,73.9,30.18,WSW,247,0.0,0.0,56,0.00,,,0.00,WUHU21623XXSP,2013-06-25 17:33:00,
2013-06-25 13:38:00,91.6,73.0,30.18,SSE,157,0.0,0.0,55,0.00,,,0.00,WUHU21623XXSP,2013-06-25 17:38:00,
2013-06-25 13:43:00,91.6,73.0,30.18,WSW,247,0.0,0.0,56,0.00,,,0.00,WUHU21623XXSP,2013-06-25 17:43:00,
2013-06-25 13:48:00,91.4,73.0,30.18,WSW,247,0.0,0.0,55,0.00,,,0.00,WUHU21623XXSP,2013-06-25 17:48:00,
2013-06-25 13:53:00,90.1,72.3,30.17,SW,225,0.0,0.0,56,0.00,,,0.00,WUHU21623XXSP,2013-06-25 17:53:00,
2013-06-25 13:58:00,88.5,71.3,30.17,WSW,247,0.0,0.0,57,0.00,,,0.00,WUHU21623XXSP,2013-06-25 17:58:00,
2013-06-25 14:03:00,87.4,70.9,30.17,WSW,247,0.0,0.0,58,0.00,,,0.00,WUHU21623XXSP,2013-06-25 18:03:00,
2013-06-25 14:08:00,85.6,70.2,30.17,WSW,247,0.0,0.0,60,0.00,,,0.00,WUHU21623XXSP,2013-06-25 18:08:00,
2013-06-25 14:13:00,84.7,69.8,30.17,WSW,247,0.0,0.0,61,0.00,,,0.00,WUHU21623XXSP,2013-06-25 18:13:00,
2013-06-25 14:18:00,84.0,70.1,30.17,WSW,247,0.0,0.0,63,0.00,,,0.00,WUHU21623XXSP,2013-06-25 18:18:00,
2013-06-25 14:23:00,83.7,70.2,30.17,WSW,247,0.0,0.0,64,0.00,,,0.00,WUHU21623XXSP,2013-06-25 18:23:00,
2013-06-25 14:28:00,83.5,70.0,30.17,WSW,247,0.0,0.0,64,0.00,,,0.00,WUHU21623XXSP,2013-06-25 18:28:00,
2013-06-25 14:34:00,83.5,70.0,30.17,ENE,67,0.0,0.0,64,0.00,,,0.00,WUHU21623XXSP,2013-06-25 18:34:00,
2013-06-25 14:39:00,82.9,69.4,30.17,NNW,337,0.0,0.0,64,0.00,,,0.00,WUHU21623XXSP,2013-06-25 18:39:00,
2013-06-25 14:44:00,82.4,68.9,30.17,NNW,337,0.0,0.0,64,0.00,,,0.00,WUHU21623XXSP,2013-06-25 18:44:00,
2013-06-25 14:49:00,81.9,68.4,30.17,NNW,337,0.0,0.0,64,0.00,,,0.00,WUHU21623XXSP,2013-06-25 18:49:00,
2013-06-25 14:54:00,81.0,68.5,30.17,NNW,337,0.0,0.0,66,0.00,,,0.00,WUHU21623XXSP,2013-06-25 18:54:00,
2013-06-25 14:59:00,80.8,68.8,30.17,NNW,337,0.0,0.0,67,0.00,,,0.00,WUHU21623XXSP,2013-06-25 18:59:00,
2013-06-25 15:04:00,80.8,69.2,30.16,NNW,337,0.0,0.0,68,0.00,,,0.00,WUHU21623XXSP,2013-06-25 19:04:00,
2013-06-25 15:09:00,81.3,69.7,30.17,NNW,337,0.0,0.0,68,0.00,,,0.00,WUHU21623XXSP,2013-06-25 19:09:00,
2013-06-25 15:14:00,81.9,69.3,30.16,NNE,22,0.0,0.0,66,0.00,,,0.00,WUHU21623XXSP,2013-06-25 19:14:00,
2013-06-25 15:19:00,81.9,69.3,30.16,NNE,22,0.0,0.0,66,0.00,,,0.00,WUHU21623XXSP,2013-06-25 19:19:00,
2013-06-25 15:24:00,81.7,69.2,30.16,WSW,247,0.0,0.0,66,0.00,,,0.00,WUHU21623XXSP,2013-06-25 19:24:00,
2013-06-25 15:29:00,81.5,69.0,30.16,WSW,247,0.0,0.0,66,0.00,,,0.00,WUHU21623XXSP,2013-06-25 19:29:00,
2013-06-25 15:34:00,81.3,68.8,30.16,WSW,247,0.0,0.0,66,0.00,,,0.00,WUHU21623XXSP,2013-06-25 19:34:00,
2013-06-25 15:39:00,81.1,68.7,30.16,WSW,247,0.0,0.0,66,0.00,,,0.00,WUHU21623XXSP,2013-06-25 19:39:00,
2013-06-25 15:44:00,81.1,68.7,30.15,WSW,247,0.0,0.0,66,0.00,,,0.00,WUHU21623XXSP,2013-06-25 19:44:00,
2013-06-25 15:49:00,81.3,69.7,30.15,WSW,247,0.0,0.0,68,0.00,,,0.00,WUHU21623XXSP,2013-06-25 19:49:00,
2013-06-25 15:54:00,81.3,69.7,30.15,WSW,247,0.0,0.0,68,0.00,,,0.00,WUHU21623XXSP,2013-06-25 19:54:00,
2013-06-25 15:59:00,81.3,70.2,30.15,WSW,247,0.0,0.0,69,0.00,,,0.00,WUHU21623XXSP,2013-06-25 19:59:00,
2013-06-25 16:04:00,81.7,70.5,30.15,WSW,247,0.0,0.0,69,0.00,,,0.00,WUHU21623XXSP,2013-06-25 20:04:00,
2013-06-25 16:09:00,82.2,70.4,30.14,WSW,247,0.0,0.0,68,0.00,,,0.00,WUHU21623XXSP,2013-06-25 20:09:00,
2013-06-25 16:14:00,83.1,71.0,30.14,WSW,247,0.0,0.0,67,0.00,,,0.00,WUHU21623XXSP,2013-06-25 20:14:00,
2013-06-25 16:19:00,83.8,71.2,30.14,WSW,247,0.0,0.0,66,0.00,,,0.00,WUHU21623XXSP,2013-06-25 20:19:00,
2013-06-25 16:24:00,84.6,72.4,30.14,WSW,247,0.0,0.0,67,0.00,,,0.00,WUHU21623XXSP,2013-06-25 20:24:00,
2013-06-25 16:29:00,85.3,71.7,30.14,WSW,247,0.0,0.0,64,0.00,,,0.00,WUHU21623XXSP,2013-06-25 20:29:00,
2013-06-25 16:34:00,86.5,72.9,30.14,WSW,247,0.0,0.0,64,0.00,,,0.00,WUHU21623XXSP,2013-06-25 20:34:00,
2013-06-25 16:39:00,87.1,72.1,30.14,WSW,247,0.0,0.0,61,0.00,,,0.00,WUHU21623XXSP,2013-06-25 20:39:00,
2013-06-25 16:44:00,87.6,72.4,30.13,WSW,247,0.0,0.0,60,0.00,,,0.00,WUHU21623XXSP,2013-06-25 20:44:00,
2013-06-25 16:49:00,87.4,72.0,30.14,WSW,247,0.0,0.0,60,0.00,,,0.00,WUHU21623XXSP,2013-06-25 20:49:00,
2013-06-25 16:54:00,86.7,71.2,30.13,WSW,247,0.0,0.0,60,0.00,,,0.00,WUHU21623XXSP,2013-06-25 20:54:00,
2013-06-25 16:59:00,86.4,71.3,30.14,WSW,247,0.0,0.0,61,0.00,,,0.00,WUHU21623XXSP,2013-06-25 20:59:00,
2013-06-25 17:04:00,86.2,71.2,30.14,WSW,247,0.0,0.0,61,0.00,,,0.00,WUHU21623XXSP,2013-06-25 21:04:00,
2013-06-25 17:09:00,85.8,70.8,30.13,WSW,247,0.0,0.0,61,0.00,,,0.00,WUHU21623XXSP,2013-06-25 21:09:00,
2013-06-25 17:14:00,85.3,70.8,30.12,WSW,247,0.0,0.0,62,0.00,,,0.00,WUHU21623XXSP,2013-06-25 21:14:00,
2013-06-25 17:19:00,85.5,71.9,30.12,WSW,247,0.0,0.0,64,0.00,,,0.00,WUHU21623XXSP,2013-06-25 21:19:00,
2013-06-25 17:24:00,85.1,71.1,30.12,WSW,247,0.0,0.0,63,0.00,,,0.00,WUHU21623XXSP,2013-06-25 21:24:00,
2013-06-25 17:29:00,84.6,70.6,30.12,WSW,247,0.0,0.0,63,0.00,,,0.00,WUHU21623XXSP,2013-06-25 21:29:00,
2013-06-25 17:34:00,83.7,70.5,30.11,WSW,247,0.0,0.0,64,0.00,,,0.00,WUHU21623XXSP,2013-06-25 21:34:00,
2013-06-25 17:39:00,83.3,70.3,30.11,WSW,247,0.0,0.0,65,0.00,,,0.00,WUHU21623XXSP,2013-06-25 21:39:00,
2013-06-25 17:44:00,83.3,70.7,30.11,WSW,247,0.0,0.0,66,0.00,,,0.00,WUHU21623XXSP,2013-06-25 21:44:00,
2013-06-25 17:50:00,83.3,70.7,30.10,WSW,247,0.0,0.0,66,0.00,,,0.00,WUHU21623XXSP,2013-06-25 21:50:00,
2013-06-25 17:55:00,83.8,71.2,30.10,WSW,247,0.0,0.0,66,0.00,,,0.00,WUHU21623XXSP,2013-06-25 21:55:00,
2013-06-25 18:00:00,84.7,72.1,30.10,WSW,247,0.0,0.0,66,0.00,,,0.00,WUHU21623XXSP,2013-06-25 22:00:00,
2013-06-25 18:05:00,85.1,72.0,30.11,WSW,247,0.0,0.0,65,0.00,,,0.00,WUHU21623XXSP,2013-06-25 22:05:00,
2013-06-25 18:10:00,85.1,72.2,30.11,WSW,247,0.0,0.0,64,0.00,,,0.00,WUHU21623XXSP,2013-06-25 22:10:00,
2013-06-25 18:15:00,85.1,71.5,30.11,WSW,247,0.0,0.0,64,0.00,,,0.00,WUHU21623XXSP,2013-06-25 22:15:00,
2013-06-25 18:20:00,84.7,71.4,30.11,WSW,247,0.0,0.0,64,0.00,,,0.00,WUHU21623XXSP,2013-06-25 22:20:00,
2013-06-25 18:25:00,84.7,71.7,30.11,WSW,247,0.0,0.0,66,0.00,,,0.00,WUHU21623XXSP,2013-06-25 22:25:00,
2013-06-25 18:30:00,84.6,72.1,30.11,WSW,247,0.0,0.0,66,0.00,,,0.00,WUHU21623XXSP,2013-06-25 22:30:00,
2013-06-25 18:35:00,84.2,71.6,30.11,WSW,247,0.0,0.0,66,0.00,,,0.00,WUHU21623XXSP,2013-06-25 22:35:00,
2013-06-25 18:40:00,83.8,71.2,30.11,WSW,247,0.0,0.0,66,0.00,,,0.00,WUHU21623XXSP,2013-06-25 22:40:00,
2013-06-25 18:45:00,83.1,70.5,30.11,WSW,247,0.0,0.0,66,0.00,,,0.00,WUHU21623XXSP,2013-06-25 22:45:00,
2013-06-25 18:50:00,82.8,70.6,30.11,WSW,247,0.0,0.0,67,0.00,,,0.00,WUHU21623XXSP,2013-06-25 22:50:00,
2013-06-25 18:55:00,82.2,70.5,30.12,WSW,247,0.0,0.0,68,0.00,,,0.00,WUHU21623XXSP,2013-06-25 22:55:00,
2013-06-25 19:00:00,81.7,70.4,30.12,WSW,247,0.0,0.0,69,0.00,,,0.00,WUHU21623XXSP,2013-06-25 23:00:00,
2013-06-25 19:06:00,81.5,70.3,30.12,WSW,247,0.0,0.0,69,0.00,,,0.00,WUHU21623XXSP,2013-06-25 23:06:00,
2013-06-25 19:11:00,81.1,70.0,30.11,WSW,247,0.0,0.0,70,0.00,,,0.00,WUHU21623XXSP,2013-06-25 23:11:00,
2013-06-25 19:16:00,80.4,70.0,30.11,WSW,247,0.0,0.0,70,0.00,,,0.00,WUHU21623XXSP,2013-06-25 23:16:00,
2013-06-25 19:21:00,79.9,70.0,30.11,WSW,247,0.0,0.0,71,0.00,,,0.00,WUHU21623XXSP,2013-06-25 23:21:00,
2013-06-25 19:26:00,79.2,69.1,30.11,WSW,247,0.0,0.0,71,0.00,,,0.00,WUHU21623XXSP,2013-06-25 23:26:00,
2013-06-25 19:31:00,78.6,68.8,30.11,WSW,247,0.0,0.0,72,0.00,,,0.00,WUHU21623XXSP,2013-06-25 23:31:00,
2013-06-25 19:36:00,78.4,68.8,30.11,WSW,247,0.0,0.0,72,0.00,,,0.00,WUHU21623XXSP,2013-06-25 23:36:00,
2013-06-25 19:41:00,78.1,68.3,30.10,WSW,247,0.0,0.0,72,0.00,,,0.00,WUHU21623XXSP,2013-06-25 23:41:00,
2013-06-25 19:46:00,77.7,68.4,30.10,WSW,247,0.0,0.0,73,0.00,,,0.00,WUHU21623XXSP,2013-06-25 23:46:00,
2013-06-25 19:51:00,77.5,68.4,30.10,WSW,247,0.0,0.0,73,0.00,,,0.00,WUHU21623XXSP,2013-06-25 23:51:00,
2013-06-25 19:56:00,77.2,68.2,30.10,WSW,247,0.0,0.0,74,0.00,,,0.00,WUHU21623XXSP,2013-06-25 23:56:00,
2013-06-25 20:01:00,77.0,68.1,30.10,WSW,247,0.0,0.0,74,0.00,,,0.00,WUHU21623XXSP,2013-06-26 00:01:00,
2013-06-25 20:06:00,76.8,67.9,30.10,WSW,247,0.0,0.0,74,0.00,,,0.00,WUHU21623XXSP,2013-06-26 00:06:00,
2013-06-25 20:11:00,76.8,67.9,30.10,WSW,247,0.0,0.0,74,0.00,,,0.00,WUHU21623XXSP,2013-06-26 00:11:00,
2013-06-25 20:16:00,76.8,67.9,30.10,WSW,247,0.0,0.0,75,0.00,,,0.00,WUHU21623XXSP,2013-06-26 00:16:00,
2013-06-25 20:21:00,76.6,68.1,30.10,WSW,247,0.0,0.0,75,0.00,,,0.00,WUHU21623XXSP,2013-06-26 00:21:00,
2013-06-25 20:26:00,76.6,68.1,30.10,WSW,247,0.0,0.0,76,0.00,,,0.00,WUHU21623XXSP,2013-06-26 00:26:00,
2013-06-25 20:31:00,76.3,68.3,30.10,WSW,247,0.0,0.0,76,0.00,,,0.00,WUHU21623XXSP,2013-06-26 00:31:00,
2013-06-25 20:36:00,75.9,67.8,30.10,WSW,247,0.0,0.0,76,0.00,,,0.00,WUHU21623XXSP,2013-06-26 00:36:00,
2013-06-25 20:41:00,75.7,68.0,30.10,WSW,247,0.0,0.0,77,0.00,,,0.00,WUHU21623XXSP,2013-06-26 00:41:00,
2013-06-25 20:46:00,75.4,67.9,30.11,WSW,247,0.0,0.0,77,0.00,,,0.00,WUHU21623XXSP,2013-06-26 00:46:00,
2013-06-25 20:51:00,75.4,67.7,30.11,WSW,247,0.0,0.0,77,0.00,,,0.00,WUHU21623XXSP,2013-06-26 00:51:00,
2013-06-25 20:56:00,75.0,67.4,30.11,WSW,247,0.0,0.0,77,0.00,,,0.00,WUHU21623XXSP,2013-06-26 00:56:00,
2013-06-25 21:01:00,75.0,67.4,30.11,WSW,247,0.0,0.0,77,0.00,,,0.00,WUHU21623XXSP,2013-06-26 01:01:00,
2013-06-25 21:06:00,74.7,67.4,30.11,WSW,247,0.0,0.0,78,0.00,,,0.00,WUHU21623XXSP,2013-06-26 01:06:00,
2013-06-25 21:11:00,74.5,67.2,30.11,WSW,247,0.0,0.0,78,0.00,,,0.00,WUHU21623XXSP,2013-06-26 01:11:00,
2013-06-25 21:16:00,74.3,67.0,30.11,WSW,247,0.0,0.0,78,0.00,,,0.00,WUHU21623XXSP,2013-06-26 01:16:00,
2013-06-25 21:21:00,74.1,67.2,30.11,WSW,247,0.0,0.0,79,0.00,,,0.00,WUHU21623XXSP,2013-06-26 01:21:00,
2013-06-25 21:26:00,73.9,67.1,30.11,WSW,247,0.0,0.0,79,0.00,,,0.00,WUHU21623XXSP,2013-06-26 01:26:00,
2013-06-25 21:31:00,73.8,66.9,30.11,WSW,247,0.0,0.0,79,0.00,,,0.00,WUHU21623XXSP,2013-06-26 01:31:00,
2013-06-25 21:36:00,73.6,67.1,30.12,WSW,247,0.0,0.0,80,0.00,,,0.00,WUHU21623XXSP,2013-06-26 01:36:00,
2013-06-25 21:41:00,73.6,67.1,30.11,WSW,247,0.0,0.0,80,0.00,,,0.00,WUHU21623XXSP,2013-06-26 01:41:00,
2013-06-25 21:46:00,73.2,66.7,30.12,WSW,247,0.0,0.0,80,0.00,,,0.00,WUHU21623XXSP,2013-06-26 01:46:00,
2013-06-25 21:51:00,73.2,66.7,30.11,WSW,247,0.0,0.0,80,0.00,,,0.00,WUHU21623XXSP,2013-06-26 01:51:00,
2013-06-25 21:56:00,73.0,66.6,30.11,WSW,247,0.0,0.0,80,0.00,,,0.00,WUHU21623XXSP,2013-06-26 01:56:00,
2013-06-25 22:01:00,72.7,66.5,30.12,WSW,247,0.0,0.0,81,0.00,,,0.00,WUHU21623XXSP,2013-06-26 02:01:00,
2013-06-25 22:06:00,72.5,66.4,30.12,WSW,247,0.0,0.0,81,0.00,,,0.00,WUHU21623XXSP,2013-06-26 02:06:00,
2013-06-25 22:12:00,72.3,66.2,30.12,WSW,247,0.0,0.0,81,0.00,,,0.00,WUHU21623XXSP,2013-06-26 02:12:00,
2013-06-25 22:17:00,72.1,66.0,30.12,WSW,247,0.0,0.0,81,0.00,,,0.00,WUHU21623XXSP,2013-06-26 02:17:00,
2013-06-25 22:22:00,72.0,65.8,30.12,WSW,247,0.0,0.0,81,0.00,,,0.00,WUHU21623XXSP,2013-06-26 02:22:00,
2013-06-25 22:27:00,71.8,65.6,30.12,WSW,247,0.0,0.0,81,0.00,,,0.00,WUHU21623XXSP,2013-06-26 02:27:00,
2013-06-25 22:32:00,71.6,65.5,30.12,WSW,247,0.0,0.0,81,0.00,,,0.00,WUHU21623XXSP,2013-06-26 02:32:00,
2013-06-25 22:37:00,71.4,65.6,30.12,WSW,247,0.0,0.0,82,0.00,,,0.00,WUHU21623XXSP,2013-06-26 02:37:00,
2013-06-25 22:42:00,71.4,65.6,30.12,WSW,247,0.0,0.0,82,0.00,,,0.00,WUHU21623XXSP,2013-06-26 02:42:00,
2013-06-25 22:47:00,71.2,65.4,30.12,WSW,247,0.0,0.0,82,0.00,,,0.00,WUHU21623XXSP,2013-06-26 02:47:00,
2013-06-25 22:52:00,71.2,65.4,30.12,WSW,247,0.0,0.0,82,0.00,,,0.00,WUHU21623XXSP,2013-06-26 02:52:00,
2013-06-25 22:57:00,70.9,65.1,30.12,WSW,247,0.0,0.0,82,0.00,,,0.00,WUHU21623XXSP,2013-06-26 02:57:00,
2013-06-25 23:02:00,70.9,65.4,30.12,WSW,247,0.0,0.0,83,0.00,,,0.00,WUHU21623XXSP,2013-06-26 03:02:00,
2013-06-25 23:07:00,70.7,65.2,30.12,WSW,247,0.0,0.0,83,0.00,,,0.00,WUHU21623XXSP,2013-06-26 03:07:00,
2013-06-25 23:12:00,70.5,65.1,30.12,WSW,247,0.0,0.0,83,0.00,,,0.00,WUHU21623XXSP,2013-06-26 03:12:00,
2013-06-25 23:17:00,70.3,64.9,30.12,WSW,247,0.0,0.0,83,0.00,,,0.00,WUHU21623XXSP,2013-06-26 03:17:00,
2013-06-25 23:22:00,70.3,64.9,30.12,WSW,247,0.0,0.0,83,0.00,,,0.00,WUHU21623XXSP,2013-06-26 03:22:00,
2013-06-25 23:27:00,70.3,64.9,30.12,WSW,247,0.0,0.0,83,0.00,,,0.00,WUHU21623XXSP,2013-06-26 03:27:00,
2013-06-25 23:32:00,70.2,64.7,30.12,WSW,247,0.0,0.0,83,0.00,,,0.00,WUHU21623XXSP,2013-06-26 03:32:00,
2013-06-25 23:37:00,70.2,65.0,30.12,WSW,247,0.0,0.0,84,0.00,,,0.00,WUHU21623XXSP,2013-06-26 03:37:00,
2013-06-25 23:42:00,70.0,64.9,30.12,WSW,247,0.0,0.0,84,0.00,,,0.00,WUHU21623XXSP,2013-06-26 03:42:00,
2013-06-25 23:47:00,70.0,64.9,30.13,WSW,247,0.0,0.0,84,0.00,,,0.00,WUHU21623XXSP,2013-06-26 03:47:00,
2013-06-25 23:52:00,69.8,64.7,30.12,WSW,247,0.0,0.0,84,0.00,,,0.00,WUHU21623XXSP,2013-06-26 03:52:00,
2013-06-25 23:57:00,69.6,64.5,30.12,WSW,247,0.0,0.0,84,0.00,,,0.00,WUHU21623XXSP,2013-06-26 03:57:00,